{"data":{"norad_id":44322,"intl_designator":"2019-033A","name":"RCM-1","alt_names":[],"object_type":"PAYLOAD","status":"ACTIVE","operator":null,"country":"CA","launch_date":"2019-06-12","launch_site_code":"AFWTR","launch_vehicle":null,"mission":null,"orbit_class":"UNKNOWN","rcs_meters":null,"size_class":null,"mass_kg":null,"dimensions":null,"purposes":[],"wikipedia_slug":null,"has_3d_model":false,"image_url":null,"decayed_at":null,"tle_current":{"epoch":"2026-09-20T05:06:56.605824Z","epoch_age_seconds":83188,"freshness":"FRESH","line1":"1 44322U 19033A   26263.21315516  .00000249  00000+0  29592-4 0  9999","line2":"2 44322  97.7604 269.3163 0001520  90.8747   0.8062 14.92588417396253","mean_motion":14.92588417,"eccentricity":0.000152,"inclination_deg":97.7604,"raan_deg":269.3163,"arg_perigee_deg":90.8747,"mean_anomaly_deg":0.8062,"bstar":2.9592e-5,"rev_number":39625,"period_min":96.476696696756,"perigee_km":588.80901841902,"apogee_km":590.9272919862,"semimajor_km":6968.0051552026,"source":"CELESTRAK","updated_at":"2026-09-20T09:00:14.458866Z"}}}